KOREASAT 116

Last updated on Wed Sep 17 2025 00:02:50 GMT+0000 (Coordinated Universal Time)

1 45920U 20048A 25259.60124007 .00000000 00000+0 00000+0 0 9995 2 45920 0.0177 167.2636 0001038 26.0913 135.0900 1.00270781 18891
UTC large
Height (km)
Speed (km/s)
/
Latitude / Longitude
Inclination (degrees)
Orbital Period (minutes)
Azimuth
Elevation
Range (km)
Doppler Factor

Next 0 passes for location: London (51.5072 / 0.1276)

Sorry there are no passes over London.